Погода в Санта Роза

Мексика     31°58′10″N   116°39′21″W
темп.,
°C
ветер,
м/с
пор.,
м/с
влажн.,
%
обл.,
%
осадки,
мм/ч
давл.,
гПа
погр.,
м
24 февраля, ср
ср2401:00+11св01800 0.0 101623
04:00+10сз11830 0.0 101627
07:00+11зсз11803 0.0 101726
10:00+17зюз32536 0.0 1018284
13:00+17юз22490 0.0 1016317
16:00+16юз33580 0.0 1015241
19:00+12всв11750 0.0 101630
22:00+11ю22620 0.0 101728
25 февраля, чт
чт2501:00+10зсз01670 0.0 101823
04:00+12св34410 0.0 101931
07:00+12всв67310 0.0 1021111
10:00+18св34290 0.0 1022331
13:00+19зюз33290 0.0 1019463
16:00+17з11330 0.0 1018246
19:00+12всв01540 0.0 101823
22:00+12ссз22460 0.0 101923
26 февраля, пт
пт2601:00+11с11520 0.0 101724
04:00+10всв01560 0.0 101624
07:00+11ссв115358 0.0 101723
10:00+17зсз223376 0.0 1017337
13:00+18з44448 0.0 1015351
16:00+16зсз33485 0.0 1013324
19:00+12ююв11720 0.0 101423
22:00+11с11680 0.0 101425
27 февраля, сб
сб2701:00+10сз12710 0.0 101340
04:00+10сз117310 0.0 101227
07:00+11сз116844 0.0 101326
10:00+18з214337 0.0 1013348
13:00+18з334298 0.0 1012387
16:00+17з224277 0.0 1011283
19:00+12ю01680 0.0 101323
22:00+11сз22650 0.0 101530
28 февраля, вс
вс2801:00+12в12560 0.0 101523
04:00+14св68280 0.0 101684
07:00+14св912290 0.0 1019203
10:00+20всв912220 0.0 1020702
13:00+22всв68200 0.0 1019802
16:00+19юв24290 0.0 1019474
19:00+15св46270 0.0 102065
22:00+13всв45230 0.0 102241